Bei uns kannst du mitfliegen! Besuche uns und lerne uns kennen - als Gast, Pilot oder jemand der es werden möchte.

Kölner Klub für Luftsport e.V.

KKFL.de

Ausbildung – Fliegen – Abenteuer
COVID-19 - Hinweis des Kölner Klub für Luftsport e.V.

Aufgrund der von der Landesregierung NRW angeordneten und vom DAEC empfohlenen Maßnahmen zur Corona-Virus-Pandemie,
ruht der praktische Ausbildungs- und Flugbetrieb im KKfL e.V. zunächst bis zum 19.04.2020.
Falls sich Änderungen ergeben, werden diese entsprechend mitgeteilt.

Unsere Geschäftsstelle am Flugplatz Hangelar und unser Sekretariat ist in dieser Zeit lediglich eingeschränkt und der Kontakt per E-Mail erreichbar.
Die telefonische Erreichbarkeit erfolgt über Rückruf. Beim Empfang von Post oder Fax kann es zu Verzögerungen kommen.
Wir wünschen allen diese schwierige Zeit gesund zu überstehen!

Link: Pressemitteilung Land NRW
Link: Mitteilung DAEC
Link: Mitteilung Aeroclub NRW

Ausbildung im KKFL

Ausbildung

Fliegen lernen im Verein
Der KKFL.de bietet eine effiziente, schnelle Ausbildung zur Pivatpilotenlizenz (PPL) in verschiedenen Ausprägungen an. Nach der Ausbildung können diverse Ergänzungen vom Verstellpropeller bis hin zu Nachtflug oder das Fliegen nach Instrumentenflugregeln (IFR) angeschlossen werden.
Fliegen im Verein ist günstig!

Unsere Flotte

Cessna 172 S

D-EOCD
Die Cessna ist als schnelle Schul- und Reisemaschine gleichsam beliebt. Unsere vereins-eigene Flotte sorgt für Abwechlung bei den Piloten und unsere Werft senkt Kosten. In der Ausbildung dürfen Schüler über 'ihre Maschine' mit entscheiden.

Cessna 172 R

D-EFPB

Piper PA 28 II

D-EFPA

Aquila A210

D-EAQJ

Piper PA 28 II

D-ELFF

Flugplatz Hangelar


[Quelle: ADDS]
METAR
EDDK 031020Z 27011KT 9999 SCT030 10/03 Q1016 NOSIG =
EDDK 030500Z 0306/0412 29009KT 9999 BKN020 BECMG 0318/0321 VRB03KT BECMG 0405/0408 13006KT
TAF
EDDK 030500Z 0306/0412 29009KT 9999 BKN020 BECMG 0318/0321 VRB03KT BECMG 0405/0408 13006KT =
SR / SS: 05:01 / 18:07 UTC (EDKB 2020-04-03)

Du willst fliegen?

Während unserer Bürozeiten und auch dazwischen sind wir für deine Fragen da.
Bitte kontaktiere den Verein unter den angegebenen Adressen.
© 2020 - Kölner Klub für Luftsport e.V.
Bonn / Hangelar - EDKB - Germany
Cookies erleichtern die Bereitstellung unserer Dienste. Mit der Nutzung unserer Dienste erklären Sie sich damit einverstanden, dass wir Cookies verwenden.